CW2840 Weather Reports


time (UTC)temp
F
wind
direction
speed
knots
gust
knots
rain 1hr
in
rain 24hr
in
rain mn
in
humidity
%
barometer
mb
20260831215653 95 144 3.5 13.9 0.00 0.00 0.00 49 1013.5
20260831214851 95 166 5.2 17.4 0.00 0.00 0.00 51 1013.7
20260831212655 94 159 7.8 19.1 0.00 0.00 0.00 53 1013.9
20260831211153 94 179 11.3 20.9 0.00 0.00 0.00 52 1013.9
20260831210358 94 138 6.1 15.6 0.00 0.00 0.00 52 1014.1
20260831204152 95 121 3.5 9.6 0.00 0.00 0.00 47 1014.2
20260831203404 97 113 4.3 9.6 0.00 0.00 0.00 45 1014.3
20260831201152 97 109 1.7 7.8 0.00 0.00 0.00 47 1014.5
20260831195653 94 0 2.6 9.6 0.00 0.00 0.00 47 1014.7
20260831194841 98 161 3.5 11.3 0.00 0.00 0.00 44 1014.9
20260831192652 97 172 4.3 7.8 0.00 0.00 0.00 45 1015.0
20260831191151 95 186 1.7 9.6 0.00 0.00 0.00 46 1015.4
20260831185652 96 172 2.6 7.8 0.00 0.00 0.00 45 1015.5
20260831184149 94 58 1.7 13.9 0.00 0.00 0.00 49 1015.7
20260831182651 95 166 4.3 9.6 0.00 0.00 0.00 49 1015.8
20260831181149 94 175 4.3 9.6 0.00 0.00 0.00 53 1016.2
20260831175650 93 125 1.7 7.8 0.00 0.00 0.00 51 1016.3
20260831174149 92 85 1.7 9.6 0.00 0.00 0.00 56 1016.5
20260831172650 93 90 2.6 6.1 0.00 0.00 0.00 55 1016.7
20260831171848 93 186 2.6 6.1 0.00 0.00 0.00 54 1016.8
20260831165649 93 117 4.3 9.6 0.00 0.00 0.00 54 1016.9
20260831164837 91 20 0.9 7.8 0.00 0.00 0.00 59 1017.0
20260831162647 91 348 4.3 7.8 0.00 0.00 0.00 60 1017.0
20260831161147 90 164 4.3 6.1 0.00 0.00 0.00 62 1017.1
20260831155646 88 172 3.5 6.1 0.00 0.00 0.00 65 1017.2
20260831154146 88 155 2.6 6.1 0.00 0.00 0.00 59 1017.1
20260831152645 88 350 2.6 6.1 0.00 0.00 0.00 63 1016.9
20260831151145 87 99 0.9 7.8 0.00 0.00 0.00 70 1016.9
20260831145645 86 72 2.6 6.1 0.00 0.00 0.00 72 1016.9
20260831144835 85 10 1.7 6.1 0.00 0.00 0.00 73 1016.9
20260831142644 85 138 0.9 4.3 0.00 0.00 0.00 77 1016.8
20260831141144 83 90 2.6 4.3 0.00 0.00 0.00 80 1016.7
20260831135643 81 92 1.7 6.1 0.00 0.00 0.00 82 1016.6
20260831134144 80 120 1.7 4.3 0.00 0.00 0.00 84 1016.6
20260831132644 80 121 2.6 4.3 0.00 0.00 0.00 85 1016.5
20260831131143 78 124 1.7 4.3 0.00 0.00 0.00 86 1016.2
20260831125643 77 165 1.7 2.6 0.00 0.00 0.00 87 1016.2
20260831124142 77 165 0.9 2.6 0.00 0.00 0.00 87 1016.2
20260831122641 77 166 0.9 2.6 0.00 0.00 0.00 87 1015.9
20260831121842 77 165 0.0 1.7 0.00 0.00 0.00 87 1015.7
20260831115644 77 166 0.0 1.7 0.00 0.00 0.00 87 1015.5
20260831114140 77 165 0.0 1.7 0.00 0.00 0.00 87 1015.4
20260831112641 77 165 0.0 1.7 0.00 0.00 0.00 87 1015.4
20260831111140 78 165 0.0 1.7 0.00 0.00 0.00 86 1015.4
20260831110340 78 165 0.0 0.0 0.00 0.00 0.00 86 1015.3
20260831104139 78 166 0.0 0.0 0.00 0.00 0.00 86 1015.2
20260831102640 78 165 0.0 1.7 0.00 0.00 0.00 85 1015.0
20260831101139 78 166 0.0 1.7 0.00 0.00 0.00 85 1015.4
20260831095639 78 165 0.0 0.0 0.00 0.00 0.00 85 1015.4
20260831094138 78 166 0.0 0.0 0.00 0.00 0.00 85 1015.3
20260831092638 78 166 0.0 0.0 0.00 0.00 0.00 84 1015.2
20260831091138 79 166 0.0 0.0 0.00 0.00 0.00 84 1015.2
20260831085638 79 166 0.0 0.0 0.00 0.00 0.00 83 1015.2
20260831084137 79 166 0.0 0.0 0.00 0.00 0.00 83 1015.2
20260831083336 80 165 0.0 0.0 0.00 0.00 0.00 82 1015.3
20260831081136 80 166 0.0 1.7 0.00 0.00 0.00 81 1015.3
20260831075636 80 166 0.0 0.0 0.00 0.00 0.00 80 1015.3
20260831074135 81 166 0.0 1.7 0.00 0.00 0.00 79 1015.5
20260831072634 81 166 0.9 2.6 0.00 0.00 0.00 79 1015.5
20260831071132 82 165 0.0 1.7 0.00 0.00 0.00 78 1015.5
20260831071025 82 165 0.0 2.6 0.00 0.00 0.00 77 1015.4
20260831064132 82 165 0.0 1.7 0.00 0.00 0.00 76 1015.5
20260831062631 83 165 0.0 4.3 0.00 0.00 0.00 76 1015.5
20260831061132 83 165 1.7 6.1 0.00 0.00 0.00 75 1015.5
20260831055632 83 169 1.7 6.1 0.00 0.00 0.00 75 1015.6
20260831054132 83 176 2.6 9.6 0.00 0.00 0.00 74 1015.5
20260831052632 84 154 1.7 7.8 0.00 0.00 0.00 73 1015.5
20260831052530 84 183 0.9 6.1 0.00 0.00 0.00 72 1015.4
20260831045630 84 148 1.7 7.8 0.00 0.00 0.00 71 1015.2
20260831044130 84 137 2.6 9.6 0.00 0.00 0.00 70 1015.2
20260831042631 84 162 1.7 6.1 0.00 0.00 0.00 69 1015.1
20260831041131 84 165 0.9 6.1 0.00 0.00 0.00 69 1015.0
20260831041007 85 168 1.7 4.3 0.00 0.00 0.00 67 1014.9
20260831034131 85 144 1.7 4.3 0.00 0.00 0.00 66 1014.8
20260831032630 86 151 2.6 7.8 0.00 0.00 0.00 64 1014.8
20260831031130 86 152 4.3 11.3 0.00 0.00 0.00 63 1014.6
20260831025629 87 137 2.6 9.6 0.00 0.00 0.00 61 1014.3
20260831024129 87 157 1.7 11.3 0.00 0.00 0.00 58 1014.2
20260831022630 87 151 2.6 6.1 0.00 0.00 0.00 57 1013.9
20260831021128 88 165 1.7 6.1 0.00 0.00 0.00 56 1013.7
20260831015628 88 169 1.7 6.1 0.00 0.00 0.00 54 1013.6
20260831014825 89 145 1.7 9.6 0.00 0.00 0.00 52 1013.4
20260831013335 90 158 4.3 12.2 0.00 0.00 0.00 50 1013.4
20260831011824 90 169 3.5 11.3 0.00 0.00 0.00 48 1013.5
20260831005627 91 154 7.8 15.6 0.00 0.00 0.00 46 1013.4
20260831004127 92 154 6.1 17.4 0.00 0.00 0.00 46 1013.2
20260831002628 93 178 8.7 15.6 0.00 0.00 0.00 46 1013.2
20260831001126 94 217 6.1 12.2 0.00 0.00 0.00 45 1013.1
20260830235625 94 121 4.3 12.2 0.00 0.00 0.00 44 1013.1
20260830234125 95 149 7.0 12.2 0.00 0.00 0.00 42 1013.0
20260830232627 96 109 2.6 13.9 0.00 0.00 0.00 41 1013.0
20260830231125 96 162 1.7 7.8 0.00 0.00 0.00 41 1013.0
20260830225625 96 114 2.6 9.6 0.00 0.00 0.00 42 1013.0
20260830224124 95 161 1.7 7.8 0.00 0.00 0.00 43 1013.1
20260830222624 95 171 3.5 6.1 0.00 0.00 0.00 44 1013.1
20260830221124 95 114 3.5 7.8 0.00 0.00 0.00 44 1013.2